Terminal Aerodrome Forecast
Issued by NWS

Home | Current Version | Previous Version | Text Only | Print | Product List | Glossary On
Versions: 1 2 3 4 5 6 7 8 9 10 11 12 13 14 15 16 17 18 19 20 21 22 23 24 25 26 27 28 29 30
000
FTUS45 KSLC 062341
TAF36U
TAF
K36U 062341Z 0700/0724 24009KT P6SM VCSH SCT060 BKN130
     FM070300 VRB04KT P6SM SCT110
     FM072000 23010KT P6SM SCT060 SCT100=

USA.gov is the U.S. government's official web portal to all federal, state and local government web resources and services.